Location: �bnet
(46.9957°N, 8.4908°E)
Time: 01:10:15
(UTC+00:00)

Cosmos 2341 Rocket - Pass Details

Date: 11 May 2021
Orbit: 968 x 1004 km, 82.9° (Epoch: 23 June)

Event Time Altitude Azimuth Distance (km) Brightness Sun altitude
Rises 21:52:53 0° 351° (N) 3,743 8.4 -21.8°
Reaches altitude 10° 21:55:26 10° 352° (N) 2,790 7.5 -22.0°
Maximum altitude 22:01:53 85° 82° (E) 1,014 4.0 -22.4°
Enters shadow 22:04:06 44° 167° (SSE) 1,353 4.2 -22.5°
